Location: Chmeln�
(49.6483°N, 14.9871°E)
Time: 09:12:13
(UTC+00:00)

COSMOS 2406 - Pass Details

Date: 18 September 2020
Orbit: 844 x 863 km, 71.0° (Epoch: 27 October)

Event Time Altitude Azimuth Distance (km) Brightness Sun altitude
Rises 19:02:57 0° 333° (NNW) 3,416 7.2 -19.0°
Reaches altitude 10° 19:05:36 10° 342° (NNW) 2,477 6.2 -19.4°
Maximum altitude 19:10:50 37° 49° (NE) 1,304 4.0 -20.2°
Enters shadow 19:12:16 32° 80° (E) 1,427 4.0 -20.4°
